Location: Madrid
(40.4000°N, 3.6830°W)
Time: 00:01:08
(UTC+02:00)

ISS - Pass Details

Date: 05 August 2020
Orbit: 418 x 420 km, 51.6° (Epoch: 08 August)

Event Time Altitude Azimuth Distance (km) Brightness Sun altitude
Rises 21:59:54 0° 299° (WNW) 2,367 2.9 -6.9°
Reaches altitude 10° 22:02:08 10° 288° (WNW) 1,500 0.7 -7.3°
Maximum altitude 22:05:08 30° 225° (SW) 776 -2.2 -7.8°
Drops below altitude 10° 22:08:07 10° 162° (SSE) 1,491 -1.4 -8.3°
Enters shadow 22:08:49 - 157° (SSE) 1,752 -1.1 -8.4°
